Dubuque, IA

3:27 PM CDT on October 19, 2019 (GMT -0500)
Dubuque Regional

Weather History for KDBQ - August, 2019

Change the Weather History Date:

Sunday, August 4, 2019

  Actual Average Record
Temperature  
Mean Temperature 73 °F 71 °F  
Max Temperature 85 °F 81 °F 99 °F (1947)
Min Temperature 60 °F 62 °F 43 °F (1978)
Degree Days  
Heating Degree Days 0 0  
Month to date heating degree days 0 0  
Since 1 June heating degree days 29 48  
Since 1 July heating degree days 0 8  
Cooling Degree Days 8 7  
Month to date cooling degree days 26 28  
Year to date cooling degree days 479 428  
Since 1 June cooling degree days 453 391  
Growing Degree Days 22 (Base 50)    
Moisture  
Dew Point 64 °F    
Average Humidity 73    
Maximum Humidity 97    
Minimum Humidity 48    
Precipitation  
Precipitation 0.00 in 0.14 in 1.79 in (2012)
Month to date precipitation 0.00 0.56  
Year to date precipitation 26.11 22.14  
Snow  
Snow 0.00 in 0.00 in - ()
Month to date snowfall 0.0 0.0  
Since 1 June snowfall 0.0 0.0  
Since 1 July snowfall 0.0 0.0  
Snow Depth 0.00 in    
Sea Level Pressure  
Sea Level Pressure 30.05 in    
Wind  
Wind Speed 2 mph (West)    
Max Wind Speed 9 mph    
Max Gust Speed 13 mph    
Visibility 10 miles    
Events      
T = Trace of Precipitation, MM = Missing Value Source: NWS Daily Summary

Daily Weather History Graph

Daily Weather History Graph

Search for Another Location

Airport or City:

Astronomy

Aug. 04, 2019 Rise Set
Actual Time 5:58 AM CDT 8:19 PM CDT
Civil Twilight 5:26 AM CDT 8:50 PM CDT
Nautical Twilight 4:47 AM CDT 9:29 PM CDT
Astronomical Twilight 4:04 AM CDT 10:12 PM CDT
Moon 10:08 AM CDT (8/4) 10:53 PM CDT (8/4)
Length of Visible Light 15h 23m
Length of Day
14h 20m
Waxing Crescent, 18% of the Moon is Illuminated
Aug 4
Waxing Crescent
Aug 7
First Quarter
Aug 15
Full
Aug 23
Last Quarter
Aug 30
New

Hourly Weather History & Observations

Time (CDT) Temp. Heat Index Dew Point Humidity Pressure Visibility Wind Dir Wind Speed Gust Speed Precip Events Conditions
12:53 AM 66.9 °F - 64.0 °F 90% 30.07 in 10.0 mi SE 4.6 mph - N/A   Clear
1:53 AM 62.1 °F - 61.0 °F 96% 30.06 in 10.0 mi SW 5.8 mph - N/A   Clear
2:53 AM 63.0 °F - 61.0 °F 93% 30.06 in 10.0 mi Calm Calm - N/A   Clear
3:53 AM 62.1 °F - 61.0 °F 96% 30.06 in 10.0 mi Calm Calm - N/A   Clear
4:53 AM 64.0 °F - 61.0 °F 90% 30.06 in 10.0 mi Calm Calm - N/A   Clear
5:53 AM 61.0 °F - 59.0 °F 93% 30.08 in 8.0 mi Calm Calm - N/A   Clear
6:53 AM 63.0 °F - 61.0 °F 93% 30.09 in 10.0 mi Calm Calm - N/A   Clear
7:53 AM 68.0 °F - 64.9 °F 90% 30.09 in 10.0 mi Calm Calm - N/A   Clear
8:53 AM 75.0 °F - 66.9 °F 76% 30.09 in 10.0 mi Calm Calm - N/A   Clear
9:53 AM 79.0 °F - 66.0 °F 64% 30.09 in 10.0 mi Calm Calm - N/A   Clear
10:53 AM 81.0 °F 83.0 °F 66.0 °F 60% 30.09 in 10.0 mi North 3.5 mph - N/A   Clear
11:53 AM 80.1 °F 82.1 °F 66.0 °F 62% 30.08 in 10.0 mi NNW 4.6 mph - N/A   Scattered Clouds
12:53 PM 82.0 °F 83.8 °F 64.9 °F 56% 30.06 in 10.0 mi Calm Calm - N/A   Partly Cloudy
1:53 PM 82.9 °F 84.6 °F 64.9 °F 54% 30.06 in 10.0 mi West 4.6 mph - N/A   Partly Cloudy
2:53 PM 84.0 °F 84.9 °F 63.0 °F 49% 30.04 in 10.0 mi Variable 3.5 mph - N/A   Clear
3:53 PM 84.0 °F 85.8 °F 64.9 °F 53% 30.04 in 10.0 mi WSW 6.9 mph - N/A   Clear
4:53 PM 84.9 °F 86.1 °F 64.0 °F 49% 30.03 in 10.0 mi WNW 8.1 mph - N/A   Clear
5:53 PM 84.0 °F 85.4 °F 64.0 °F 51% 30.02 in 10.0 mi West 4.6 mph - N/A   Clear
6:53 PM 82.9 °F 84.6 °F 64.9 °F 54% 30.01 in 10.0 mi West 3.5 mph - N/A   Clear
7:53 PM 79.0 °F - 66.9 °F 66% 29.99 in 10.0 mi Calm Calm - N/A   Clear
8:53 PM 73.9 °F - 66.0 °F 76% 30.00 in 10.0 mi Calm Calm - N/A   Clear
9:53 PM 70.0 °F - 64.9 °F 84% 30.00 in 10.0 mi Calm Calm - N/A   Clear
10:53 PM 68.0 °F - 64.0 °F 87% 30.01 in 10.0 mi Calm Calm - N/A   Clear
11:53 PM 69.1 °F - 64.9 °F 87% 30.01 in 10.0 mi Calm Calm - N/A   Clear